| time (UTC) | temp F | wind direction | speed MPH | gust MPH | rain 1hr in | rain 24hr in | rain mn in | humidity % | barometer mb |
| 20260903200558 | 89 | 0 | 0.0 | 4.0 | 0.00 | 0.30 | 0.01 | 64 | 1013.8 |
| 20260903200121 | 88 | 249 | 0.0 | 7.0 | 0.00 | 0.30 | 0.01 | 64 | 1013.8 |
| 20260903195559 | 87 | 0 | 1.0 | 7.0 | 0.00 | 0.30 | 0.01 | 65 | 1013.9 |
| 20260903195058 | 86 | 229 | 3.0 | 8.0 | 0.00 | 0.30 | 0.01 | 66 | 1014.0 |
| 20260903194609 | 86 | 257 | 3.0 | 8.0 | 0.00 | 0.30 | 0.01 | 66 | 1014.2 |
| 20260903194058 | 85 | 259 | 1.0 | 13.0 | 0.00 | 0.30 | 0.01 | 67 | 1014.3 |
| 20260903193558 | 86 | 273 | 4.0 | 13.0 | 0.00 | 0.30 | 0.01 | 65 | 1014.4 |
| 20260903193114 | 87 | 247 | 3.0 | 14.0 | 0.00 | 0.30 | 0.01 | 65 | 1014.6 |
| 20260903192602 | 88 | 243 | 3.0 | 14.0 | 0.00 | 0.30 | 0.01 | 64 | 1014.6 |
| 20260903192058 | 90 | 316 | 5.0 | 14.0 | 0.00 | 0.30 | 0.01 | 65 | 1014.5 |
| 20260903191606 | 91 | 245 | 2.0 | 8.0 | 0.00 | 0.30 | 0.01 | 63 | 1014.5 |
| 20260903191100 | 93 | 0 | 0.0 | 8.0 | 0.00 | 0.30 | 0.01 | 64 | 1014.2 |
| 20260903190600 | 94 | 89 | 1.0 | 7.0 | 0.00 | 0.30 | 0.01 | 62 | 1014.1 |
| 20260903190113 | 96 | 101 | 0.0 | 6.0 | 0.00 | 0.30 | 0.01 | 61 | 1014.4 |
| 20260903185602 | 96 | 180 | 1.0 | 6.0 | 0.00 | 0.30 | 0.01 | 63 | 1014.4 |
| 20260903185059 | 95 | 269 | 2.0 | 9.0 | 0.00 | 0.30 | 0.01 | 63 | 1014.2 |
| 20260903184609 | 95 | 0 | 2.0 | 10.0 | 0.00 | 0.30 | 0.01 | 62 | 1014.3 |
| 20260903184102 | 95 | 306 | 2.0 | 10.0 | 0.00 | 0.30 | 0.01 | 61 | 1014.3 |
| 20260903183600 | 96 | 100 | 2.0 | 8.0 | 0.00 | 0.30 | 0.01 | 62 | 1014.2 |
| 20260903183102 | 96 | 64 | 3.0 | 8.0 | 0.00 | 0.30 | 0.01 | 62 | 1014.2 |
| 20260903182559 | 96 | 110 | 2.0 | 10.0 | 0.00 | 0.30 | 0.01 | 62 | 1014.2 |
| 20260903182103 | 96 | 129 | 1.0 | 11.0 | 0.00 | 0.30 | 0.01 | 62 | 1014.3 |
| 20260903181608 | 95 | 0 | 2.0 | 11.0 | 0.00 | 0.30 | 0.01 | 63 | 1014.3 |
| 20260903181059 | 95 | 309 | 1.0 | 11.0 | 0.00 | 0.30 | 0.01 | 62 | 1014.3 |
| 20260903180603 | 95 | 0 | 1.0 | 10.0 | 0.00 | 0.30 | 0.01 | 63 | 1014.2 |
| 20260903180112 | 95 | 236 | 2.0 | 11.0 | 0.00 | 0.30 | 0.01 | 63 | 1014.3 |
| 20260903175558 | 95 | 111 | 1.0 | 11.0 | 0.00 | 1.35 | 0.01 | 62 | 1014.2 |
| 20260903175059 | 95 | 154 | 2.0 | 9.0 | 0.00 | 1.35 | 0.01 | 62 | 1014.3 |
| 20260903174603 | 95 | 118 | 2.0 | 11.0 | 0.00 | 1.35 | 0.01 | 62 | 1014.5 |
| 20260903174059 | 96 | 108 | 1.0 | 11.0 | 0.00 | 1.35 | 0.01 | 63 | 1014.5 |
| 20260903173559 | 96 | 111 | 3.0 | 10.0 | 0.00 | 1.35 | 0.01 | 61 | 1014.7 |
| 20260903173101 | 96 | 232 | 1.0 | 10.0 | 0.00 | 1.35 | 0.01 | 62 | 1014.9 |
| 20260903172559 | 96 | 100 | 1.0 | 10.0 | 0.00 | 1.35 | 0.01 | 61 | 1014.8 |
| 20260903172101 | 95 | 224 | 0.0 | 10.0 | 0.00 | 1.35 | 0.01 | 62 | 1014.8 |
| 20260903171614 | 95 | 153 | 2.0 | 10.0 | 0.00 | 1.35 | 0.01 | 60 | 1014.7 |
| 20260903171059 | 96 | 111 | 1.0 | 5.0 | 0.00 | 1.35 | 0.01 | 60 | 1014.9 |
| 20260903170601 | 96 | 81 | 1.0 | 5.0 | 0.00 | 1.35 | 0.01 | 61 | 1015.1 |
| 20260903170106 | 96 | 128 | 1.0 | 7.0 | 0.00 | 1.35 | 0.01 | 61 | 1015.2 |
| 20260903165600 | 96 | 325 | 1.0 | 7.0 | 0.00 | 1.35 | 0.01 | 61 | 1015.3 |
| 20260903165059 | 96 | 270 | 1.0 | 9.0 | 0.00 | 1.35 | 0.01 | 60 | 1015.3 |
| 20260903164602 | 95 | 0 | 1.0 | 9.0 | 0.00 | 1.35 | 0.01 | 61 | 1015.5 |
| 20260903164101 | 95 | 205 | 2.0 | 7.0 | 0.00 | 1.35 | 0.01 | 61 | 1015.4 |
| 20260903163603 | 95 | 0 | 2.0 | 6.0 | 0.00 | 1.35 | 0.01 | 62 | 1015.6 |
| 20260903163102 | 96 | 34 | 0.0 | 7.0 | 0.00 | 1.35 | 0.01 | 61 | 1015.5 |
| 20260903162559 | 95 | 250 | 1.0 | 7.0 | 0.00 | 1.35 | 0.01 | 62 | 1015.5 |
| 20260903162059 | 95 | 303 | 1.0 | 4.0 | 0.00 | 1.35 | 0.01 | 63 | 1015.4 |
| 20260903161612 | 95 | 0 | 0.0 | 4.0 | 0.00 | 1.35 | 0.01 | 61 | 1015.4 |
| 20260903161059 | 95 | 213 | 0.0 | 4.0 | 0.00 | 1.35 | 0.01 | 62 | 1015.5 |
| 20260903160558 | 94 | 0 | 1.0 | 4.0 | 0.00 | 1.35 | 0.01 | 64 | 1015.5 |
| 20260903160105 | 93 | 0 | 0.0 | 4.0 | 0.00 | 1.35 | 0.01 | 64 | 1015.6 |
| 20260903155559 | 93 | 231 | 0.0 | 4.0 | 0.00 | 1.35 | 0.01 | 65 | 1015.7 |
| 20260903155059 | 93 | 0 | 0.0 | 4.0 | 0.00 | 1.35 | 0.01 | 64 | 1015.8 |
| 20260903154609 | 93 | 0 | 0.0 | 9.0 | 0.00 | 1.35 | 0.01 | 65 | 1016.0 |
| 20260903154059 | 93 | 177 | 1.0 | 9.0 | 0.00 | 1.35 | 0.01 | 65 | 1016.0 |
| 20260903153558 | 93 | 101 | 2.0 | 9.0 | 0.00 | 1.35 | 0.01 | 64 | 1016.0 |
| 20260903153109 | 93 | 240 | 0.0 | 5.0 | 0.00 | 1.35 | 0.01 | 65 | 1015.9 |
| 20260903152559 | 93 | 108 | 0.0 | 5.0 | 0.00 | 1.35 | 0.01 | 66 | 1016.0 |
| 20260903152058 | 92 | 204 | 0.0 | 5.0 | 0.00 | 1.35 | 0.01 | 66 | 1015.9 |
| 20260903151612 | 92 | 0 | 0.0 | 5.0 | 0.00 | 1.35 | 0.01 | 67 | 1015.8 |
| 20260903151058 | 91 | 235 | 0.0 | 4.0 | 0.00 | 1.35 | 0.01 | 68 | 1015.9 |
| 20260903150558 | 91 | 0 | 1.0 | 9.0 | 0.00 | 1.35 | 0.01 | 68 | 1015.8 |
| 20260903150120 | 90 | 225 | 1.0 | 9.0 | 0.00 | 1.35 | 0.01 | 69 | 1015.8 |
| 20260903145601 | 90 | 96 | 1.0 | 8.0 | 0.00 | 1.35 | 0.01 | 70 | 1015.9 |
| 20260903145101 | 90 | 0 | 0.0 | 8.0 | 0.00 | 1.35 | 0.01 | 71 | 1015.8 |
| 20260903144617 | 89 | 109 | 0.0 | 8.0 | 0.00 | 1.35 | 0.01 | 71 | 1015.9 |
| 20260903144100 | 89 | 103 | 0.0 | 4.0 | 0.00 | 1.35 | 0.01 | 73 | 1015.9 |
| 20260903143558 | 89 | 82 | 0.0 | 3.0 | 0.00 | 1.35 | 0.01 | 74 | 1015.8 |
| 20260903143121 | 88 | 0 | 0.0 | 3.0 | 0.00 | 1.35 | 0.01 | 77 | 1015.7 |
| 20260903142559 | 88 | 0 | 0.0 | 4.0 | 0.00 | 1.35 | 0.01 | 78 | 1015.7 |
| 20260903142059 | 87 | 0 | 0.0 | 4.0 | 0.00 | 1.35 | 0.01 | 80 | 1015.6 |
| 20260903141601 | 86 | 0 | 0.0 | 3.0 | 0.00 | 1.35 | 0.01 | 82 | 1015.7 |
| 20260903141058 | 86 | 0 | 0.0 | 3.0 | 0.00 | 1.35 | 0.01 | 84 | 1015.6 |
| 20260903140559 | 85 | 0 | 0.0 | 2.0 | 0.00 | 1.35 | 0.01 | 86 | 1015.7 |
| 20260903140113 | 85 | 0 | 0.0 | 2.0 | 0.00 | 1.35 | 0.01 | 87 | 1015.7 |
| 20260903135558 | 84 | 0 | 0.0 | 2.0 | 0.00 | 1.35 | 0.01 | 88 | 1015.8 |
| 20260903135058 | 84 | 0 | 0.0 | 2.0 | 0.00 | 1.35 | 0.01 | 89 | 1015.7 |
| 20260903134607 | 84 | 0 | 0.0 | 4.0 | 0.00 | 1.35 | 0.01 | 89 | 1015.5 |
| 20260903134058 | 83 | 0 | 0.0 | 4.0 | 0.00 | 1.35 | 0.01 | 89 | 1015.5 |
| 20260903133604 | 83 | 0 | 0.0 | 0.0 | 0.00 | 1.35 | 0.01 | 89 | 1015.5 |
| 20260903133118 | 83 | 0 | 0.0 | 0.0 | 0.00 | 1.35 | 0.01 | 90 | 1015.4 |
| 20260903132559 | 83 | 0 | 0.0 | 0.0 | 0.00 | 1.35 | 0.01 | 90 | 1015.4 |
| 20260903132100 | 83 | 0 | 0.0 | 0.0 | 0.00 | 1.35 | 0.01 | 90 | 1015.5 |
| 20260903131612 | 82 | 0 | 0.0 | 0.0 | 0.00 | 1.35 | 0.01 | 90 | 1015.4 |
| 20260903131101 | 83 | 0 | 0.0 | 0.0 | 0.00 | 1.35 | 0.01 | 90 | 1015.5 |
| 20260903130558 | 82 | 0 | 0.0 | 0.0 | 0.00 | 1.35 | 0.01 | 90 | 1015.4 |
| 20260903125559 | 82 | 0 | 0.0 | 0.0 | 0.00 | 1.35 | 0.01 | 90 | 1015.5 |
| 20260903125058 | 82 | 0 | 0.0 | 0.0 | 0.00 | 1.35 | 0.01 | 90 | 1015.6 |
| 20260903124615 | 82 | 0 | 0.0 | 0.0 | 0.00 | 1.35 | 0.01 | 90 | 1015.6 |
| 20260903124058 | 82 | 0 | 0.0 | 0.0 | 0.00 | 1.35 | 0.01 | 90 | 1015.6 |
| 20260903123606 | 81 | 0 | 0.0 | 0.0 | 0.00 | 1.35 | 0.01 | 91 | 1015.6 |
| 20260903123104 | 81 | 0 | 0.0 | 0.0 | 0.00 | 1.35 | 0.01 | 90 | 1015.6 |
| 20260903122559 | 80 | 0 | 0.0 | 0.0 | 0.00 | 1.35 | 0.01 | 90 | 1015.6 |
| 20260903122101 | 80 | 0 | 0.0 | 0.0 | 0.00 | 1.35 | 0.01 | 90 | 1015.5 |
| 20260903121603 | 79 | 0 | 0.0 | 0.0 | 0.00 | 1.35 | 0.01 | 90 | 1015.5 |
| 20260903121059 | 79 | 0 | 0.0 | 0.0 | 0.00 | 1.35 | 0.01 | 90 | 1015.4 |
| 20260903120603 | 79 | 0 | 0.0 | 0.0 | 0.00 | 1.35 | 0.01 | 90 | 1015.4 |
| 20260903120106 | 78 | 0 | 0.0 | 0.0 | 0.00 | 1.35 | 0.01 | 90 | 1015.4 |
| 20260903115558 | 78 | 0 | 0.0 | 0.0 | 0.00 | 1.35 | 0.01 | 90 | 1015.4 |
| 20260903115059 | 77 | 0 | 0.0 | 0.0 | 0.00 | 1.35 | 0.01 | 90 | 1015.3 |
| 20260903114607 | 77 | 0 | 0.0 | 0.0 | 0.00 | 1.35 | 0.01 | 90 | 1015.1 |
| 20260903114057 | 77 | 0 | 0.0 | 0.0 | 0.00 | 1.35 | 0.01 | 90 | 1015.1 |
| 20260903113601 | 77 | 0 | 0.0 | 0.0 | 0.00 | 1.35 | 0.01 | 90 | 1015.1 |
| 20260903113108 | 77 | 0 | 0.0 | 0.0 | 0.00 | 1.35 | 0.01 | 90 | 1015.1 |
| 20260903112601 | 77 | 0 | 0.0 | 0.0 | 0.00 | 1.35 | 0.01 | 90 | 1015.0 |
| 20260903112057 | 77 | 0 | 0.0 | 0.0 | 0.00 | 1.35 | 0.01 | 90 | 1015.0 |
| 20260903111602 | 76 | 0 | 0.0 | 0.0 | 0.00 | 1.35 | 0.01 | 89 | 1014.9 |
| 20260903111058 | 76 | 0 | 0.0 | 0.0 | 0.00 | 1.35 | 0.01 | 89 | 1014.9 |
| 20260903110559 | 76 | 0 | 0.0 | 0.0 | 0.00 | 1.35 | 0.01 | 89 | 1014.5 |
| 20260903110105 | 76 | 0 | 0.0 | 0.0 | 0.00 | 1.35 | 0.01 | 89 | 1014.4 |
| 20260903105600 | 77 | 0 | 0.0 | 0.0 | 0.00 | 1.35 | 0.01 | 89 | 1014.4 |
| 20260903105101 | 77 | 0 | 0.0 | 0.0 | 0.00 | 1.35 | 0.01 | 89 | 1014.3 |
| 20260903104603 | 77 | 0 | 0.0 | 0.0 | 0.00 | 1.35 | 0.01 | 89 | 1014.2 |
| 20260903104100 | 77 | 0 | 0.0 | 0.0 | 0.00 | 1.35 | 0.01 | 89 | 1014.1 |
| 20260903103558 | 77 | 0 | 0.0 | 0.0 | 0.00 | 1.35 | 0.01 | 89 | 1014.0 |
| 20260903103104 | 77 | 0 | 0.0 | 0.0 | 0.00 | 1.35 | 0.01 | 89 | 1014.0 |
| 20260903102559 | 77 | 0 | 0.0 | 0.0 | 0.00 | 1.35 | 0.01 | 89 | 1013.9 |
| 20260903102059 | 77 | 0 | 0.0 | 0.0 | 0.00 | 1.35 | 0.01 | 89 | 1013.8 |
| 20260903101608 | 77 | 0 | 0.0 | 0.0 | 0.00 | 1.35 | 0.01 | 89 | 1013.9 |
| 20260903101059 | 77 | 0 | 0.0 | 0.0 | 0.00 | 1.35 | 0.01 | 89 | 1013.9 |
| 20260903100558 | 77 | 0 | 0.0 | 0.0 | 0.00 | 1.35 | 0.01 | 89 | 1013.9 |
| 20260903095600 | 77 | 0 | 0.0 | 0.0 | 0.00 | 1.35 | 0.01 | 89 | 1013.7 |
| 20260903095059 | 77 | 0 | 0.0 | 0.0 | 0.00 | 1.35 | 0.01 | 89 | 1013.6 |
| 20260903094652 | 77 | 0 | 0.0 | 0.0 | 0.00 | 1.35 | 0.01 | 89 | 1013.7 |
| 20260903094059 | 77 | 0 | 0.0 | 0.0 | 0.00 | 1.35 | 0.01 | 89 | 1013.7 |
| 20260903093602 | 77 | 0 | 0.0 | 0.0 | 0.00 | 1.35 | 0.01 | 89 | 1013.7 |
| 20260903093105 | 77 | 0 | 0.0 | 0.0 | 0.00 | 1.35 | 0.01 | 89 | 1013.7 |
| 20260903092558 | 77 | 0 | 0.0 | 0.0 | 0.00 | 1.35 | 0.01 | 89 | 1013.7 |
| 20260903092102 | 77 | 0 | 0.0 | 0.0 | 0.00 | 1.35 | 0.01 | 89 | 1013.7 |
| 20260903091608 | 77 | 0 | 0.0 | 0.0 | 0.00 | 1.35 | 0.01 | 89 | 1013.6 |
| 20260903091100 | 77 | 0 | 0.0 | 0.0 | 0.00 | 1.35 | 0.01 | 89 | 1013.7 |
| 20260903090558 | 77 | 0 | 0.0 | 0.0 | 0.00 | 1.35 | 0.01 | 89 | 1013.7 |
| 20260903090108 | 77 | 0 | 0.0 | 0.0 | 0.00 | 1.35 | 0.01 | 89 | 1013.7 |
| 20260903085558 | 77 | 0 | 0.0 | 0.0 | 0.00 | 1.35 | 0.01 | 89 | 1013.6 |
| 20260903085058 | 77 | 0 | 0.0 | 0.0 | 0.00 | 1.35 | 0.01 | 89 | 1013.7 |
| 20260903084603 | 77 | 0 | 0.0 | 0.0 | 0.00 | 1.35 | 0.01 | 89 | 1013.6 |
| 20260903084058 | 77 | 0 | 0.0 | 0.0 | 0.00 | 1.35 | 0.01 | 89 | 1013.6 |
| 20260903083557 | 77 | 0 | 0.0 | 0.0 | 0.00 | 1.35 | 0.01 | 89 | 1013.5 |
| 20260903083104 | 77 | 0 | 0.0 | 0.0 | 0.00 | 1.35 | 0.01 | 89 | 1013.5 |
| 20260903082558 | 77 | 0 | 0.0 | 0.0 | 0.00 | 1.35 | 0.01 | 89 | 1013.5 |
| 20260903082058 | 77 | 0 | 0.0 | 0.0 | 0.00 | 1.35 | 0.01 | 89 | 1013.4 |
| 20260903081608 | 77 | 0 | 0.0 | 0.0 | 0.00 | 1.35 | 0.01 | 89 | 1013.5 |
| 20260903081058 | 77 | 0 | 0.0 | 0.0 | 0.00 | 1.35 | 0.01 | 89 | 1013.6 |
| 20260903080558 | 77 | 0 | 0.0 | 0.0 | 0.00 | 1.35 | 0.01 | 89 | 1013.4 |
| 20260903080109 | 77 | 0 | 0.0 | 0.0 | 0.00 | 1.35 | 0.01 | 89 | 1013.4 |
| 20260903075558 | 77 | 0 | 0.0 | 0.0 | 0.00 | 1.35 | 0.01 | 89 | 1013.5 |
| 20260903075058 | 77 | 0 | 0.0 | 0.0 | 0.00 | 1.35 | 0.01 | 89 | 1013.4 |
| 20260903074609 | 77 | 0 | 0.0 | 0.0 | 0.00 | 1.35 | 0.01 | 89 | 1013.4 |
| 20260903074103 | 77 | 0 | 0.0 | 0.0 | 0.00 | 1.35 | 0.01 | 89 | 1013.5 |
| 20260903073559 | 77 | 0 | 0.0 | 0.0 | 0.00 | 1.35 | 0.01 | 89 | 1013.5 |
| 20260903073104 | 77 | 0 | 0.0 | 0.0 | 0.00 | 1.35 | 0.01 | 89 | 1013.4 |
| 20260903072558 | 77 | 0 | 0.0 | 0.0 | 0.00 | 1.35 | 0.01 | 89 | 1013.5 |
| 20260903072058 | 77 | 0 | 0.0 | 0.0 | 0.00 | 1.35 | 0.01 | 89 | 1013.4 |
| 20260903071604 | 77 | 0 | 0.0 | 0.0 | 0.00 | 1.35 | 0.01 | 89 | 1013.4 |
| 20260903071058 | 77 | 0 | 0.0 | 0.0 | 0.00 | 1.35 | 0.01 | 89 | 1013.6 |
| 20260903070601 | 77 | 0 | 0.0 | 0.0 | 0.00 | 1.35 | 0.01 | 89 | 1013.7 |
| 20260903070110 | 77 | 0 | 0.0 | 0.0 | 0.00 | 1.35 | 0.01 | 89 | 1013.8 |
| 20260903065601 | 77 | 0 | 0.0 | 0.0 | 0.00 | 1.35 | 0.01 | 88 | 1013.9 |
| 20260903065059 | 77 | 0 | 0.0 | 0.0 | 0.00 | 1.35 | 0.01 | 88 | 1014.0 |
| 20260903064608 | 77 | 0 | 0.0 | 0.0 | 0.00 | 1.35 | 0.01 | 88 | 1014.2 |
| 20260903064101 | 77 | 0 | 0.0 | 0.0 | 0.00 | 1.35 | 0.01 | 88 | 1014.3 |
| 20260903063601 | 77 | 0 | 0.0 | 0.0 | 0.00 | 1.35 | 0.01 | 88 | 1014.1 |
| 20260903063102 | 77 | 0 | 0.0 | 0.0 | 0.00 | 1.35 | 0.01 | 88 | 1014.0 |
| 20260903062558 | 77 | 0 | 0.0 | 0.0 | 0.00 | 1.35 | 0.01 | 88 | 1013.9 |
| 20260903062059 | 78 | 0 | 0.0 | 0.0 | 0.00 | 1.35 | 0.01 | 88 | 1013.8 |
| 20260903061602 | 78 | 0 | 0.0 | 0.0 | 0.00 | 1.35 | 0.01 | 88 | 1014.1 |
| 20260903061059 | 78 | 0 | 0.0 | 0.0 | 0.00 | 1.35 | 0.01 | 88 | 1014.3 |
| 20260903060557 | 78 | 0 | 0.0 | 0.0 | 0.00 | 1.35 | 0.01 | 88 | 1014.5 |
| 20260903060114 | 78 | 0 | 0.0 | 0.0 | 0.00 | 1.35 | 0.01 | 88 | 1014.6 |
| 20260903055601 | 77 | 0 | 0.0 | 0.0 | 0.00 | 1.35 | 0.01 | 88 | 1014.6 |
| 20260903055100 | 77 | 0 | 0.0 | 0.0 | 0.00 | 1.35 | 0.01 | 88 | 1014.6 |
| 20260903054618 | 77 | 0 | 0.0 | 0.0 | 0.00 | 1.35 | 0.01 | 88 | 1014.7 |
| 20260903054100 | 77 | 0 | 0.0 | 2.0 | 0.00 | 1.35 | 0.01 | 88 | 1014.7 |
| 20260903053604 | 77 | 0 | 0.0 | 2.0 | 0.00 | 1.35 | 0.01 | 88 | 1014.9 |
| 20260903053109 | 78 | 0 | 0.0 | 2.0 | 0.00 | 1.35 | 0.01 | 88 | 1015.0 |
| 20260903052558 | 77 | 0 | 0.0 | 1.0 | 0.00 | 1.35 | 0.01 | 88 | 1015.2 |
| 20260903052059 | 77 | 0 | 0.0 | 0.0 | 0.00 | 1.35 | 0.01 | 88 | 1015.1 |
| 20260903051612 | 77 | 0 | 0.0 | 0.0 | 0.00 | 1.35 | 0.01 | 88 | 1015.2 |
| 20260903051057 | 77 | 0 | 0.0 | 0.0 | 0.01 | 1.35 | 0.01 | 88 | 1015.2 |
| 20260903050557 | 77 | 0 | 0.0 | 2.0 | 0.01 | 1.35 | 0.01 | 88 | 1015.0 |
| 20260903050111 | 77 | 0 | 0.0 | 2.0 | 0.01 | 1.35 | 0.01 | 88 | 1015.1 |
| 20260903045602 | 77 | 0 | 0.0 | 0.0 | 0.01 | 1.35 | 0.01 | 87 | 1015.3 |
| 20260903045100 | 77 | 0 | 0.0 | 0.0 | 0.01 | 1.35 | 0.01 | 87 | 1015.5 |
| 20260903044603 | 77 | 0 | 0.0 | 0.0 | 0.01 | 1.35 | 0.01 | 87 | 1015.7 |
| 20260903044058 | 77 | 0 | 0.0 | 0.0 | 0.01 | 1.35 | 0.01 | 87 | 1015.7 |
| 20260903043559 | 77 | 0 | 0.0 | 0.0 | 0.01 | 1.35 | 0.01 | 87 | 1015.6 |
| 20260903043106 | 77 | 0 | 0.0 | 0.0 | 0.01 | 1.35 | 0.01 | 87 | 1015.4 |
| 20260903042559 | 77 | 0 | 0.0 | 0.0 | 0.01 | 1.35 | 0.01 | 87 | 1015.3 |
| 20260903042059 | 77 | 0 | 0.0 | 5.0 | 0.01 | 1.35 | 0.01 | 87 | 1015.4 |
| 20260903041614 | 77 | 0 | 0.0 | 5.0 | 0.01 | 1.35 | 0.01 | 87 | 1015.7 |
| 20260903041100 | 78 | 0 | 0.0 | 0.0 | 0.00 | 1.34 | 0.00 | 87 | 1015.8 |
| 20260903040601 | 78 | 0 | 0.0 | 1.0 | 0.00 | 1.34 | 0.00 | 87 | 1015.8 |
| 20260903040126 | 78 | 0 | 0.0 | 1.0 | 0.00 | 1.34 | 0.00 | 87 | 1015.8 |
| 20260903035558 | 78 | 0 | 0.0 | 3.0 | 0.00 | 1.34 | 1.34 | 87 | 1015.8 |
| 20260903035058 | 78 | 0 | 0.0 | 3.0 | 0.00 | 1.34 | 1.34 | 87 | 1015.9 |
| 20260903034606 | 78 | 205 | 0.0 | 1.0 | 0.00 | 1.34 | 1.34 | 87 | 1015.8 |
| 20260903034102 | 78 | 0 | 0.0 | 0.0 | 0.00 | 1.34 | 1.34 | 87 | 1015.9 |
| 20260903033558 | 78 | 0 | 0.0 | 0.0 | 0.01 | 1.34 | 1.34 | 87 | 1015.9 |
| 20260903033107 | 78 | 0 | 0.0 | 0.0 | 0.02 | 1.34 | 1.34 | 86 | 1016.1 |
| 20260903032557 | 78 | 0 | 0.0 | 0.0 | 0.04 | 1.34 | 1.34 | 86 | 1015.8 |
| 20260903032058 | 78 | 0 | 0.0 | 0.0 | 0.04 | 1.34 | 1.34 | 86 | 1015.7 |
| 20260903031610 | 78 | 0 | 0.0 | 0.0 | 0.04 | 1.34 | 1.34 | 86 | 1015.7 |
| 20260903031104 | 78 | 0 | 0.0 | 0.0 | 0.04 | 1.34 | 1.34 | 86 | 1015.8 |
| 20260903030600 | 78 | 0 | 0.0 | 0.0 | 0.04 | 1.34 | 1.34 | 86 | 1015.8 |
| 20260903030103 | 78 | 0 | 0.0 | 0.0 | 0.04 | 1.34 | 1.34 | 86 | 1015.9 |
| 20260903025558 | 78 | 0 | 0.0 | 0.0 | 0.04 | 1.34 | 1.34 | 85 | 1015.9 |
| 20260903025058 | 78 | 0 | 0.0 | 0.0 | 0.04 | 1.34 | 1.34 | 85 | 1015.8 |
| 20260903024609 | 78 | 0 | 0.0 | 0.0 | 0.04 | 1.34 | 1.34 | 85 | 1015.7 |
| 20260903024059 | 78 | 0 | 0.0 | 1.0 | 0.04 | 1.34 | 1.34 | 85 | 1015.8 |
| 20260903023559 | 78 | 0 | 0.0 | 2.0 | 0.04 | 1.33 | 1.33 | 85 | 1015.5 |
| 20260903023106 | 78 | 0 | 0.0 | 2.0 | 0.04 | 1.32 | 1.32 | 85 | 1015.4 |
| 20260903022601 | 78 | 0 | 0.0 | 2.0 | 0.03 | 1.30 | 1.30 | 85 | 1015.3 |
| 20260903022059 | 79 | 0 | 0.0 | 2.0 | 0.09 | 1.30 | 1.30 | 85 | 1015.1 |
| 20260903021604 | 79 | 0 | 0.0 | 2.0 | 0.11 | 1.30 | 1.30 | 85 | 1015.0 |
| 20260903021101 | 79 | 0 | 0.0 | 2.0 | 0.16 | 1.30 | 1.30 | 84 | 1015.2 |
| 20260903020600 | 79 | 0 | 0.0 | 2.0 | 0.22 | 1.30 | 1.30 | 83 | 1015.4 |
| 20260903020105 | 79 | 0 | 0.0 | 0.0 | 0.25 | 1.30 | 1.30 | 83 | 1015.4 |
| 20260903015559 | 79 | 0 | 0.0 | 0.0 | 0.25 | 1.30 | 1.30 | 83 | 1015.3 |
| 20260903015059 | 79 | 0 | 0.0 | 0.0 | 0.25 | 1.30 | 1.30 | 83 | 1015.2 |
| 20260903014604 | 79 | 0 | 0.0 | 2.0 | 0.25 | 1.30 | 1.30 | 83 | 1015.0 |
| 20260903014058 | 79 | 0 | 0.0 | 2.0 | 0.25 | 1.30 | 1.30 | 82 | 1015.1 |
| 20260903013559 | 79 | 0 | 0.0 | 3.0 | 0.24 | 1.29 | 1.29 | 82 | 1015.2 |
| 20260903013103 | 79 | 0 | 0.0 | 3.0 | 0.23 | 1.28 | 1.28 | 81 | 1015.3 |
| 20260903012558 | 79 | 0 | 0.0 | 2.0 | 0.22 | 1.27 | 1.27 | 81 | 1015.4 |
| 20260903012102 | 79 | 0 | 0.0 | 2.0 | 0.16 | 1.21 | 1.21 | 80 | 1015.2 |
| 20260903011602 | 80 | 0 | 0.0 | 6.0 | 0.14 | 1.19 | 1.19 | 79 | 1015.2 |
| 20260903011101 | 81 | 219 | 1.0 | 8.0 | 0.09 | 1.14 | 1.14 | 78 | 1015.1 |
| 20260903010559 | 82 | 207 | 2.0 | 8.0 | 0.03 | 1.08 | 1.08 | 76 | 1014.9 |
| 20260903010108 | 84 | 209 | 2.0 | 5.0 | 0.00 | 1.04 | 1.04 | 77 | 1014.7 |
| 20260903005600 | 84 | 0 | 0.0 | 2.0 | 0.00 | 1.04 | 1.04 | 78 | 1014.8 |
| 20260903005058 | 84 | 0 | 0.0 | 2.0 | 0.00 | 1.04 | 1.04 | 78 | 1014.6 |
| 20260903004602 | 84 | 0 | 0.0 | 4.0 | 0.00 | 1.04 | 1.04 | 78 | 1014.6 |
| 20260903004059 | 84 | 0 | 0.0 | 6.0 | 0.00 | 1.04 | 1.04 | 78 | 1014.5 |
| 20260903003559 | 84 | 114 | 0.0 | 6.0 | 0.00 | 1.04 | 1.04 | 78 | 1014.3 |
| 20260903003106 | 84 | 80 | 0.0 | 1.0 | 0.00 | 1.04 | 1.04 | 78 | 1014.3 |
| 20260903002600 | 84 | 0 | 0.0 | 2.0 | 0.00 | 1.04 | 1.04 | 78 | 1014.2 |
| 20260903002059 | 84 | 0 | 0.0 | 2.0 | 0.00 | 1.04 | 1.04 | 78 | 1014.2 |
| 20260903001609 | 84 | 0 | 0.0 | 2.0 | 0.00 | 1.04 | 1.04 | 78 | 1014.2 |
| 20260903001058 | 85 | 0 | 0.0 | 1.0 | 0.00 | 1.04 | 1.04 | 77 | 1014.3 |
| 20260903000559 | 85 | 0 | 0.0 | 1.0 | 0.00 | 1.04 | 1.04 | 77 | 1014.2 |
| 20260903000103 | 85 | 0 | 0.0 | 1.0 | 0.00 | 1.04 | 1.04 | 77 | 1014.2 |
| 20260902235559 | 85 | 0 | 0.0 | 2.0 | 0.00 | 1.04 | 1.04 | 77 | 1014.3 |
| 20260902235100 | 85 | 0 | 0.0 | 4.0 | 0.00 | 1.04 | 1.04 | 77 | 1014.3 |
| 20260902234606 | 85 | 0 | 0.0 | 4.0 | 0.00 | 1.04 | 1.04 | 76 | 1014.2 |
| 20260902234102 | 85 | 0 | 0.0 | 3.0 | 0.00 | 1.04 | 1.04 | 76 | 1014.1 |
| 20260902233559 | 85 | 0 | 0.0 | 3.0 | 0.00 | 1.04 | 1.04 | 76 | 1014.0 |
| 20260902233108 | 86 | 123 | 0.0 | 1.0 | 0.00 | 1.04 | 1.04 | 76 | 1014.1 |
| 20260902232559 | 86 | 0 | 0.0 | 1.0 | 0.00 | 1.04 | 1.04 | 75 | 1014.1 |
| 20260902232058 | 86 | 0 | 0.0 | 2.0 | 0.00 | 1.04 | 1.04 | 75 | 1014.2 |
| 20260902231606 | 86 | 0 | 0.0 | 3.0 | 0.00 | 1.04 | 1.04 | 74 | 1014.4 |
| 20260902231102 | 86 | 0 | 0.0 | 3.0 | 0.00 | 1.04 | 1.04 | 74 | 1014.5 |
| 20260902230603 | 87 | 0 | 0.0 | 6.0 | 0.00 | 1.04 | 1.04 | 74 | 1014.4 |
| 20260902230120 | 87 | 0 | 0.0 | 6.0 | 0.00 | 1.04 | 1.04 | 73 | 1014.1 |
| 20260902225559 | 87 | 150 | 1.0 | 6.0 | 0.00 | 1.04 | 1.04 | 73 | 1013.9 |
| 20260902225100 | 87 | 202 | 0.0 | 4.0 | 0.00 | 1.04 | 1.04 | 72 | 1014.1 |
| 20260902224607 | 87 | 0 | 0.0 | 4.0 | 0.00 | 1.04 | 1.04 | 72 | 1014.0 |
| 20260902224059 | 88 | 153 | 0.0 | 3.0 | 0.00 | 1.04 | 1.04 | 72 | 1013.9 |
| 20260902223600 | 88 | 144 | 0.0 | 3.0 | 0.00 | 1.04 | 1.04 | 71 | 1013.9 |
| 20260902223110 | 89 | 0 | 0.0 | 3.0 | 0.00 | 1.04 | 1.04 | 70 | 1013.8 |
| 20260902222559 | 89 | 0 | 0.0 | 4.0 | 0.00 | 1.04 | 1.04 | 70 | 1013.9 |
| 20260902222100 | 90 | 105 | 0.0 | 6.0 | 0.00 | 1.04 | 1.04 | 69 | 1014.0 |
| 20260902221608 | 90 | 146 | 0.0 | 6.0 | 0.00 | 1.04 | 1.04 | 69 | 1014.0 |
| 20260902221059 | 90 | 107 | 1.0 | 4.0 | 0.00 | 1.04 | 1.04 | 69 | 1013.9 |
| 20260902220559 | 91 | 0 | 1.0 | 6.0 | 0.00 | 1.04 | 1.04 | 69 | 1013.9 |
| 20260902220123 | 91 | 131 | 0.0 | 6.0 | 0.00 | 1.04 | 1.04 | 68 | 1013.8 |
| 20260902215558 | 91 | 153 | 2.0 | 5.0 | 0.00 | 1.04 | 1.04 | 68 | 1013.9 |
| 20260902215100 | 91 | 0 | 0.0 | 4.0 | 0.00 | 1.04 | 1.04 | 67 | 1014.0 |
| 20260902214637 | 91 | 0 | 0.0 | 3.0 | 0.00 | 1.04 | 1.04 | 66 | 1013.9 |
| 20260902214058 | 91 | 0 | 0.0 | 6.0 | 0.00 | 1.04 | 1.04 | 68 | 1013.9 |
| 20260902213601 | 91 | 0 | 1.0 | 7.0 | 0.00 | 1.04 | 1.04 | 68 | 1014.0 |
| 20260902213107 | 91 | 0 | 1.0 | 7.0 | 0.00 | 1.04 | 1.04 | 67 | 1014.1 |
| 20260902212558 | 91 | 0 | 0.0 | 8.0 | 0.00 | 1.04 | 1.04 | 67 | 1014.0 |
| 20260902212058 | 91 | 148 | 1.0 | 8.0 | 0.00 | 1.04 | 1.04 | 68 | 1014.1 |
| 20260902211605 | 92 | 92 | 1.0 | 5.0 | 0.00 | 1.04 | 1.04 | 67 | 1014.0 |
| 20260902211058 | 92 | 0 | 0.0 | 4.0 | 0.00 | 1.04 | 1.04 | 67 | 1013.9 |
| 20260902210559 | 91 | 0 | 0.0 | 4.0 | 0.00 | 1.04 | 1.04 | 68 | 1013.9 |
| 20260902210136 | 91 | 92 | 1.0 | 6.0 | 0.00 | 1.04 | 1.04 | 67 | 1013.9 |
| 20260902205557 | 91 | 82 | 1.0 | 6.0 | 0.00 | 1.04 | 1.04 | 68 | 1013.7 |
| 20260902205057 | 92 | 65 | 0.0 | 3.0 | 0.00 | 1.04 | 1.04 | 68 | 1013.5 |
| 20260902204604 | 92 | 0 | 0.0 | 3.0 | 0.00 | 1.04 | 1.04 | 68 | 1013.7 |
| 20260902204059 | 91 | 0 | 0.0 | 4.0 | 0.00 | 1.04 | 1.04 | 69 | 1013.7 |
| 20260902203558 | 91 | 0 | 0.0 | 4.0 | 0.00 | 1.04 | 1.04 | 70 | 1013.9 |
| 20260902203107 | 90 | 0 | 0.0 | 4.0 | 0.00 | 1.04 | 1.04 | 71 | 1013.9 |
| 20260902202559 | 90 | 0 | 0.0 | 4.0 | 0.00 | 1.04 | 1.04 | 72 | 1013.9 |
| 20260902202058 | 89 | 0 | 0.0 | 4.0 | 0.00 | 1.04 | 1.04 | 74 | 1014.0 |
| 20260902201627 | 88 | 0 | 0.0 | 3.0 | 0.00 | 1.04 | 1.04 | 75 | 1014.2 |
| 20260902201102 | 87 | 0 | 0.0 | 3.0 | 0.00 | 1.04 | 1.04 | 77 | 1014.2 |